Location: Trenton
(45.6167°N, 62.6167°W)
Time: 08:11:12
(UTC+00:00)

Nauka - Pass Details

Date: 30 September 2021
Orbit: 418 x 423 km, 51.6° (Epoch: 18 October)

Event Time Altitude Azimuth Distance (km) Brightness Sun altitude
Rises 00:27:50 0° 297° (WNW) 2,368 ? -27.0°
Reaches altitude 10° 00:29:56 10° 295° (WNW) 1,502 ? -27.3°
Enters shadow 00:31:17 22° 292° (WNW) 965 ? -27.5°
